When you browse on this site, cookies collect data to enhance your experience and personalize the content and advertising you see.
Visit our Privacy Policy to learn more. By continuing to use the site, you agree to this use of cookies and data.
  • In United Kingdom
  • List of Countries
  • For 7 days
  • Water Temperature
  • Satellite Maps
  • Weather Map
  • Weather Widgets
  • user-avatar
    Login

    Hourly Weather Gold Coast

    Today, 24 May, Friday

    Time Temperature Precipitation Wind Pressure Humidity
    00:00 +17°C° 0.1 mm 2 mps 764 mmHg 91%
    01:00 +17°C° 0.1 mm 2 mps 764 mmHg 91%
    02:00 +16°C° 0 mm 2 mps 764 mmHg 92%
    03:00 +16°C° 0 mm 3 mps 764 mmHg 93%
    04:00 +16°C° 0 mm 3 mps 763 mmHg 93%
    05:00 +16°C° 0 mm 3 mps 763 mmHg 93%
    06:00 +16°C° 0 mm 3 mps 764 mmHg 92%
    07:00 +16°C° 0 mm 3 mps 764 mmHg 92%
    08:00 +18°C° 0 mm 3 mps 764 mmHg 81%
    09:00 +21°C° 0 mm 2 mps 763 mmHg 71%
    10:00 +24°C° 0 mm 3 mps 763 mmHg 61%
    11:00 +24°C° 0.1 mm 3 mps 763 mmHg 60%
    12:00 +25°C° 0.1 mm 3 mps 762 mmHg 60%
    13:00 +25°C° 0.1 mm 3 mps 762 mmHg 59%
    14:00 +24°C° 0.2 mm 3 mps 762 mmHg 65%
    15:00 +22°C° 0.2 mm 3 mps 762 mmHg 71%
    16:00 +21°C° 0.2 mm 3 mps 761 mmHg 77%
    17:00 +20°C° 0.1 mm 2 mps 762 mmHg 81%
    18:00 +19°C° 0.1 mm 2 mps 762 mmHg 85%
    19:00 +18°C° 0.1 mm 2 mps 762 mmHg 88%
    20:00 +18°C° 0.1 mm 2 mps 762 mmHg 89%
    21:00 +17°C° 0.1 mm 2 mps 762 mmHg 90%
    22:00 +17°C° 0.1 mm 2 mps 763 mmHg 92%
    23:00 +17°C° 0.1 mm 2 mps 762 mmHg 92%

    Tomorrow, 25 May, Saturday

    Time Temperature Precipitation Wind Pressure Humidity
    00:00 +16°C° 0.1 mm 2 mps 762 mmHg 93%
    01:00 +16°C° 0.1 mm 2 mps 762 mmHg 94%
    02:00 +16°C° 0 mm 2 mps 762 mmHg 94%
    03:00 +16°C° 0 mm 2 mps 762 mmHg 94%
    04:00 +16°C° 0 mm 2 mps 761 mmHg 94%
    05:00 +16°C° 0 mm 2 mps 761 mmHg 93%
    06:00 +16°C° 0 mm 2 mps 762 mmHg 93%
    07:00 +16°C° 0 mm 2 mps 762 mmHg 92%
    08:00 +18°C° 0 mm 2 mps 762 mmHg 81%
    09:00 +22°C° 0 mm 1 mps 762 mmHg 71%
    10:00 +25°C° 0 mm 1 mps 762 mmHg 60%
    11:00 +25°C° 0 mm 1 mps 761 mmHg 57%
    12:00 +26°C° 0 mm 1 mps 761 mmHg 53%
    13:00 +26°C° 0 mm 1 mps 760 mmHg 49%
    14:00 +25°C° 0 mm 2 mps 760 mmHg 56%
    15:00 +24°C° 0 mm 2 mps 759 mmHg 63%
    16:00 +23°C° 0 mm 2 mps 759 mmHg 70%
    17:00 +21°C° 0.1 mm 2 mps 759 mmHg 76%
    18:00 +20°C° 0.1 mm 1 mps 760 mmHg 83%
    19:00 +19°C° 0.1 mm 1 mps 760 mmHg 89%
    20:00 +19°C° 0.1 mm 1 mps 760 mmHg 89%
    21:00 +19°C° 0.1 mm 1 mps 760 mmHg 89%
    22:00 +19°C° 0.1 mm 1 mps 761 mmHg 89%
    23:00 +18°C° 0.1 mm 1 mps 760 mmHg 90%

    Day after tomorrow, 26 May, Sunday

    Time Temperature Precipitation Wind Pressure Humidity
    00:00 +18°C° 0.1 mm 1 mps 760 mmHg 91%
    01:00 +17°C° 0.1 mm 2 mps 760 mmHg 92%
    02:00 +17°C° 0 mm 2 mps 760 mmHg 92%
    03:00 +16°C° 0 mm 2 mps 759 mmHg 93%
    04:00 +16°C° 0 mm 2 mps 759 mmHg 93%
    05:00 +16°C° 0 mm 2 mps 759 mmHg 92%
    06:00 +16°C° 0 mm 3 mps 760 mmHg 91%
    07:00 +16°C° 0 mm 3 mps 760 mmHg 90%
    08:00 +18°C° 0 mm 3 mps 760 mmHg 78%
    09:00 +21°C° 0 mm 2 mps 760 mmHg 66%
    10:00 +24°C° 0 mm 2 mps 760 mmHg 54%
    11:00 +25°C° 0 mm 2 mps 759 mmHg 47%
    12:00 +26°C° 0 mm 2 mps 758 mmHg 40%
    13:00 +27°C° 0 mm 2 mps 757 mmHg 33%
    14:00 +26°C° 0 mm 2 mps 757 mmHg 38%
    15:00 +25°C° 0 mm 2 mps 757 mmHg 43%
    16:00 +24°C° 0 mm 3 mps 757 mmHg 48%
    17:00 +22°C° 0 mm 3 mps 757 mmHg 54%
    18:00 +20°C° 0 mm 3 mps 758 mmHg 60%
    19:00 +19°C° 0 mm 3 mps 758 mmHg 66%
    20:00 +18°C° 0 mm 3 mps 758 mmHg 67%
    21:00 +18°C° 0 mm 3 mps 758 mmHg 68%
    22:00 +17°C° 0 mm 3 mps 758 mmHg 68%
    23:00 +17°C° 0 mm 3 mps 758 mmHg 65%

    27 May, Monday

    Time Temperature Precipitation Wind Pressure Humidity
    00:00 +16°C° 0 mm 3 mps 758 mmHg 63%
    01:00 +16°C° 0 mm 2 mps 758 mmHg 60%
    02:00 +16°C° 0 mm 2 mps 757 mmHg 57%
    03:00 +16°C° 0 mm 2 mps 757 mmHg 55%
    04:00 +16°C° 0 mm 2 mps 757 mmHg 52%
    05:00 +16°C° 0 mm 3 mps 757 mmHg 53%
    06:00 +16°C° 0 mm 3 mps 758 mmHg 53%
    07:00 +16°C° 0 mm 3 mps 758 mmHg 53%
    08:00 +18°C° 0 mm 3 mps 758 mmHg 48%
    09:00 +21°C° 0 mm 3 mps 758 mmHg 44%
    10:00 +25°C° 0 mm 3 mps 758 mmHg 39%
    11:00 +26°C° 0 mm 4 mps 757 mmHg 36%
    12:00 +26°C° 0 mm 4 mps 756 mmHg 34%
    13:00 +27°C° 0 mm 4 mps 756 mmHg 31%
    14:00 +26°C° 0 mm 4 mps 756 mmHg 33%
    15:00 +25°C° 0 mm 4 mps 755 mmHg 35%
    16:00 +23°C° 0 mm 4 mps 755 mmHg 37%
    17:00 +21°C° 0 mm 4 mps 756 mmHg 36%
    18:00 +20°C° 0 mm 5 mps 756 mmHg 36%
    19:00 +17°C° 0 mm 5 mps 757 mmHg 35%
    20:00 +16°C° 0 mm 5 mps 758 mmHg 38%
    21:00 +15°C° 0 mm 5 mps 758 mmHg 41%
    22:00 +14°C° 0 mm 5 mps 759 mmHg 45%
    23:00 +14°C° 0 mm 5 mps 759 mmHg 48%

    28 May, Tuesday

    Time Temperature Precipitation Wind Pressure Humidity
    00:00 +13°C° 0 mm 5 mps 759 mmHg 52%
    01:00 +13°C° 0 mm 5 mps 759 mmHg 55%
    02:00 +12°C° 0 mm 4 mps 759 mmHg 58%
    03:00 +11°C° 0 mm 4 mps 759 mmHg 61%
    04:00 +11°C° 0 mm 4 mps 759 mmHg 64%
    05:00 +11°C° 0 mm 4 mps 760 mmHg 64%
    06:00 +10°C° 0 mm 3 mps 760 mmHg 64%
    07:00 +10°C° 0 mm 3 mps 760 mmHg 63%
    08:00 +12°C° 0 mm 3 mps 760 mmHg 54%
    09:00 +16°C° 0 mm 2 mps 761 mmHg 45%
    10:00 +18°C° 0 mm 2 mps 761 mmHg 35%
    11:00 +21°C° 0 mm 1 mps 760 mmHg 33%
    12:00 +22°C° 0 mm 1 mps 759 mmHg 30%
    13:00 +22°C° 0 mm 0 mps 759 mmHg 27%
    14:00 +23°C° 0 mm 1 mps 759 mmHg 31%
    15:00 +21°C° 0 mm 2 mps 758 mmHg 36%
    16:00 +20°C° 0 mm 2 mps 758 mmHg 40%
    17:00 +18°C° 0 mm 2 mps 759 mmHg 47%
    18:00 +16°C° 0 mm 2 mps 759 mmHg 54%
    19:00 +14°C° 0 mm 1 mps 760 mmHg 61%
    20:00 +14°C° 0 mm 1 mps 760 mmHg 62%
    21:00 +13°C° 0 mm 2 mps 760 mmHg 63%
    22:00 +13°C° 0 mm 2 mps 760 mmHg 65%
    23:00 +13°C° 0 mm 2 mps 760 mmHg 64%

    29 May, Wednesday

    Time Temperature Precipitation Wind Pressure Humidity
    00:00 +12°C° 0 mm 2 mps 759 mmHg 64%
    01:00 +10°C° 0 mm 3 mps 759 mmHg 63%
    02:00 +10°C° 0 mm 3 mps 759 mmHg 62%
    03:00 +10°C° 0 mm 3 mps 759 mmHg 61%
    04:00 +9°C° 0 mm 3 mps 759 mmHg 60%
    05:00 +9°C° 0 mm 3 mps 759 mmHg 61%
    06:00 +9°C° 0 mm 3 mps 759 mmHg 62%
    07:00 +9°C° 0 mm 3 mps 760 mmHg 63%
    08:00 +12°C° 0 mm 3 mps 760 mmHg 55%
    09:00 +14°C° 0 mm 3 mps 760 mmHg 48%
    10:00 +18°C° 0 mm 3 mps 759 mmHg 41%
    11:00 +19°C° 0 mm 3 mps 759 mmHg 38%
    12:00 +21°C° 0 mm 2 mps 758 mmHg 34%
    13:00 +23°C° 0 mm 2 mps 757 mmHg 31%
    14:00 +23°C° 0 mm 2 mps 757 mmHg 33%
    15:00 +21°C° 0 mm 3 mps 757 mmHg 36%
    16:00 +21°C° 0 mm 3 mps 757 mmHg 38%
    17:00 +19°C° 0 mm 3 mps 757 mmHg 41%
    18:00 +17°C° 0 mm 3 mps 757 mmHg 43%
    19:00 +14°C° 0 mm 3 mps 758 mmHg 46%
    20:00 +13°C° 0 mm 3 mps 758 mmHg 48%
    21:00 +13°C° 0 mm 3 mps 758 mmHg 49%
    22:00 +12°C° 0 mm 3 mps 758 mmHg 51%
    23:00 +12°C° 0 mm 3 mps 758 mmHg 52%
    Show more